Terug naar catalogus

DELTA 1 DEB

ActiefLEO
NORAD 7182·DEBRIS·🇺🇸 United States

Gelanceerd Nov 6, 1973 vanaf Vandenberg Space Force Base

Loading…

Volgende Passages (komende 24 uur)

TLE

VersSource: Space-Track

Epoch: Sep 13, 2026, 23:46 UTC

1 07182U 73086ET  26256.99096146  .00000195  00000-0  89072-3 0  9991
2 07182 102.5361  71.5515 0334276  60.7950  89.5679 12.77401704699263

Volg DELTA 1 DEB in realtime met AllMySat

Download on the App Store